Retour au catalogue

STARLINK-33623

ActifCommunicationsVLEO
NORAD 63072·PAYLOAD·🇺🇸 United States

Lancé Feb 21, 2025 depuis Cape Canaveral Space Force Station

Loading…

Prochains Passages (prochaines 24 heures)

TLE

FraisSource: CelesTrak SupGP

Époque: Sep 15, 2026, 02:53 UTC

1 63072C 25035W   26258.12062500  .00034870  00000+0  12632-2 0  2587
2 63072  43.0014 157.5898 0001446 270.3149 214.9572 15.27556887    11

Suivez STARLINK-33623 en temps réel avec AllMySat

Download on the App Store